Location: Newark
(54.6072°N, 2.8847°W)
Time: 07:08:14
(UTC+00:00)

Envisat - Visible Passes

Search period start: 22 October 2019 00:00
Search period end: 01 November 2019 00:00
Orbit: 764 x 766 km, 98.1° (Epoch: 22 October)

Date Brightness Start Highest point End Pass type
(mag) Time Alt. Az. Time Alt. Az. Time Alt. Az.
22 Oct 3.1 17:59:36 10° SSE 18:04:42 88° WSW 18:09:50 10° NNW visible
22 Oct 5.9 19:41:16 10° SW 19:44:29 17° W 19:47:44 10° NW visible
23 Oct 6.0 06:02:06 10° NE 06:05:51 20° E 06:09:37 10° SE visible
23 Oct 3.2 17:23:05 10° SE 17:28:00 51° ENE 17:32:56 10° N visible
23 Oct 4.9 19:02:48 10° SSW 19:07:16 31° W 19:11:47 10° NNW visible
24 Oct 6.6 05:27:30 10° ENE 05:28:30 10° E 05:29:30 10° E visible
24 Oct 3.7 18:25:16 10° S 18:30:16 57° W 18:35:18 10° NNW visible
24 Oct 6.3 20:09:42 10° W 20:10:26 10° W 20:11:11 10° WNW visible
25 Oct 3.0 17:48:21 10° SSE 17:53:26 78° ENE 17:58:33 10° NNW visible
25 Oct 5.6 19:29:22 10° SW 19:33:04 20° W 19:36:48 10° NW visible
26 Oct 6.1 05:51:09 10° NE 05:54:26 17° E 05:57:44 10° SE visible
26 Oct 4.6 18:51:14 10° SSW 18:55:55 37° W 19:00:38 10° NNW visible
27 Oct 3.4 18:13:53 10° S 18:18:57 69° WSW 18:24:03 10° NNW visible
27 Oct 6.1 19:56:44 10° WSW 19:58:58 13° W 20:01:13 10° NW visible
28 Oct 5.6 06:16:01 10° NE 06:20:17 26° E 06:24:31 10° SSE visible
28 Oct 3.0 17:37:09 10° SSE 17:42:11 66° ENE 17:47:14 10° N visible
28 Oct 5.3 19:17:36 10° SW 19:21:40 24° W 19:25:46 10° NW visible
29 Oct 6.2 05:40:22 10° NE 05:43:00 14° E 05:45:39 10° ESE visible
29 Oct 4.2 18:39:43 10° S 18:44:34 44° W 18:49:27 10° NNW visible
30 Oct 3.1 18:02:34 10° SSE 18:07:40 82° WSW 18:12:47 10° NNW visible
30 Oct 5.9 19:44:32 10° WSW 19:47:31 16° W 19:50:31 10° NW visible
31 Oct 5.8 06:04:57 10° NE 06:08:53 22° E 06:12:47 10° SE visible
31 Oct 3.1 17:26:00 10° SE 17:30:56 55° ENE 17:35:56 10° N visible
31 Oct 5.0 19:05:54 10° SSW 19:10:17 29° W 19:14:41 10° NNW visible
